PROFILE

 METAR AND TAF INFORMATION
ADDS - METARS form results

(0752 UTC 20 September 2020)
http://aviationweather.gov/metar/data/
 
LFBD 200730Z AUTO 01005KT 340V040 9999 OVC005 18/17 Q1014 TEMPO 3000 SHRA FEW025CB BKN030TCU
LFBD 200700Z AUTO 01003KT 5000 0800 R23/P2300 R05/1200N R29/P2300 BCFG OVC003 18/17 Q1013 TEMPO OVC004 BKN020TCU
TAF LFBD 200500Z 2006/2112 20005KT 9999 BKN010 TX24/2014Z TN17/2006Z TEMPO 2006/2009 4000 -SHRA OVC004 BKN020TCU BECMG 2009/2011 BKN020 PROB40 TEMPO 2009/2022 3000 SHRA FEW025CB BKN030TCU PROB30 TEMPO 2012/2016 -TSRA BKN020CB TEMPO 2022/2109 -SHRA BKN005 BKN020 TEMPO 2109/2112 4000 SHRA BKN020CB 

 AIRPORT MAP

 RUNWAY INFORMATION
Runway 05 Runway length 10171 ft Runway width 148 ft
Runway elevation 160 ft Runway displaced threshold 0 ft Runway heading 46
Runway 23 Runway length 10171 ft Runway width 148 ft
Runway elevation 151 ft Runway displaced threshold 0 ft Runway heading 226
Runway 11 Runway length 7923 ft Runway width 148 ft
Runway elevation 153 ft Runway displaced threshold 0 ft Runway heading 107
Runway 29 Runway length 7923 ft Runway width 148 ft
Runway elevation 160 ft Runway displaced threshold 0 ft Runway heading 287

 AIRPORT FREQUENCIES
Type APP Name AQUITAINE Frequency 118.6 MHZ
Type ARR Name APP Frequency 121.2 MHZ
Type ATIS Name ATIS Frequency 131.15 MHZ
Type GND Name GND Frequency 121.9 MHZ
Type INFO Name AQUITAINE Frequency 120.575 MHZ
Type OPS Name OPNS Frequency 143.175 MHZ
Type TWR Name TWR Frequency 118.3 MHZ

 AIRPORT NEAR NAVIGATION AIDS
Type NDB Name Bordeaux Frequency 393 KHZ
Type TACAN Name Bordeaux Frequency 114400 KHZ
Type NDB Name Bordeaux Frequency 318 KHZ
Type VOR-DME Name Bordeaux Frequency 113750 KHZ
Type NDB Name Bordeaux Frequency 361 KHZ